sat.trackr.live / text

‹ back to catalog

GAOFEN-11 01

NORAD 43585 · 2018-063A

PAYLOAD ACTIVE UNKNOWN

§ Identity

Operator
Country
PRC
Launch date
2018-07-31
Launch site
TAISC
Launch vehicle
Mass (kg)
RCS (m²)

Purposes: earth_obs

External: N2YO · Heavens-Above · Gunter

§ Orbital elements

Epoch: 2026-09-13T04:27:46.310688Z

Period
92.45 min
Inclination
97.1200°
Eccentricity
0.0003929
Mean motion
15.57674504 rev/d
Perigee alt
391.7 km
Apogee alt
397.1 km
Semi-major
6,772.5 km
B*
1.8577e-4
RAAN
322.9198°
Arg perigee
30.3207°
Mean anomaly
329.8275°
Rev number
45,403

§ Raw data

GAOFEN-11 011 43585U 18063A   26256.18595267  .00013653  00000+0  18577-3 0  99952 43585  97.1200 322.9198 0003929  30.3207 329.8275 15.57674504454034

JSON: /api/v1/satellites/43585 · /tle

For live sub-satellite position, see the globe view (requires WebGL).

§ Visibility from observer

Set your observer location to see the next 7 days of passes ≥ 10°. The values pass through the URL so the page stays shareable.

No JS? Fill the form by hand. The geolocation button needs JavaScript.